Location: Lake Arresoe
(56.0000°N, 12.5000°E)
Time: 09:23:52
(UTC+02:00)

Resurs 1-4 Rocket - Pass Details

Date: 15 August 2020
Orbit: 799 x 815 km, 98.6° (Epoch: 23 September)

Event Time Altitude Azimuth Distance (km) Brightness Sun altitude
Rises 03:30:19 0° 15° (NNE) 3,334 6.8 -14.5°
Reaches altitude 10° 03:32:41 10° 13° (NNE) 2,397 5.7 -14.3°
Maximum altitude 03:37:55 67° 292° (WNW) 872 2.2 -13.9°
Enters shadow 03:41:36 20° 214° (SW) 1,788 3.3 -13.6°
